This demonstration page uses our WeatherBlox Daily Observations layout. Learn more.

39.29038, -76.61219

Hourly Observations for July 24, 2016

Temp ( °F °C ) Dew Point ( °F °C ) Humidity (%) Winds ( mph kmh ) Pressure ( in mb ) Visibility ( mi km ) Precip ( " mm )
12:54 am 00:54 undefined 82 27.8 70 21.1 67 67 undefined N/A 29.93 1013 N/A 0 0
1:54 am 01:54 undefined 83 28.3 70 21.1 65 65 undefined N/A 29.93 1014 N/A 0 0
2:54 am 02:54 undefined 84 28.9 65 18.3 53 53 undefined N/A 29.93 1014 N/A 0 0
3:54 am 03:54 undefined 83 28.3 63 17.2 51 51 undefined N/A 29.95 1014 N/A 0 0
4:54 am 04:54 undefined 82 27.8 63 17.2 53 53 undefined N/A 29.96 1014 N/A 0 0
5:54 am 05:54 undefined 81 27.2 63 17.2 54 54 undefined N/A 29.97 1015 N/A 0 0
6:54 am 06:54 undefined 82 27.8 63 17.2 53 53 undefined N/A 29.98 1015 N/A 0 0
7:54 am 07:54 undefined 83 28.3 63 17.2 51 51 undefined N/A 29.99 1016 N/A 0 0
8:54 am 08:54 undefined 87 30.6 61 16.1 42 42 undefined N/A 29.99 1016 N/A 0 0
9:54 am 09:54 undefined 90 32.2 59 15 35 35 undefined N/A 29.99 1016 N/A 0 0
10:54 am 10:54 undefined 91 32.8 61 16.1 37 37 undefined N/A 29.99 1016 N/A 0 0
11:54 am 11:54 undefined 91 32.8 59 15 34 34 undefined N/A 30.01 1016 N/A 0 0
12:54 pm 12:54 undefined 92 33.3 59 15 33 33 undefined N/A 30.01 1016 N/A 0 0
1:54 pm 13:54 undefined 94 34.4 59 15 31 31 undefined N/A 29.99 1016 N/A 0 0
2:54 pm 14:54 undefined 93 33.9 62 16.7 36 36 undefined N/A 29.97 1015 N/A 0 0
3:54 pm 15:54 undefined 94 34.4 62 16.7 35 35 undefined N/A 29.96 1015 N/A 0 0
4:54 pm 16:54 undefined 94 34.4 66 18.9 40 40 undefined N/A 29.95 1014 N/A 0 0
5:54 pm 17:54 undefined 93 33.9 66 18.9 41 41 undefined N/A 29.94 1014 N/A 0 0
6:54 pm 18:54 undefined 91 32.8 65 18.3 42 42 undefined N/A 29.94 1014 N/A 0 0
7:54 pm 19:54 undefined 91 32.8 64 17.8 41 41 undefined N/A 29.95 1014 N/A 0 0
8:54 pm 20:54 undefined 90 32.2 66 18.9 45 45 undefined N/A 29.96 1015 N/A 0 0
9:54 pm 21:54 undefined 88 31.1 68 20 52 52 undefined N/A 29.98 1015 N/A 0 0
10:54 pm 22:54 undefined 87 30.6 71 21.7 59 59 undefined N/A 29.96 1015 N/A 0 0
11:54 pm 23:54 undefined 85 29.4 71 21.7 63 63 undefined N/A 29.97 1015 N/A 0 0

Powered by AerisWeather